Location: Hylvaty SDH
(49.9612°N, 16.4057°E)
Time: 12:46:01
(UTC+01:00)

A-11 Canister half - Pass Details

Date: 02 October 2020
Orbit: 1526 x 1683 km, 47.3° (Epoch: 28 October)

Event Time Altitude Azimuth Distance (km) Brightness Sun altitude
Rises 06:10:21 0° 287° (WNW) 4,754 - -8.2°
Exits shadow 06:13:53 - 274° (W) 3,936 10.5 -7.7°
Reaches altitude 10° 06:14:37 10° 270° (W) 3,793 10.4 -7.5°
Maximum altitude 06:20:34 18° 231° (SW) 3,200 10.2 -6.6°
Drops below altitude 10° 06:26:37 10° 193° (SSW) 3,861 11.0 -5.6°
Sets 06:31:04 0° 176° (S) 4,870 11.7 -4.9°
